Somerville, NJ

4:20 AM EDT on October 23, 2019 (GMT -0400)
Somerset

Weather History for KSMQ - September, 2019

Change the Weather History Date:

Tuesday, September 17, 2019

  Actual Average Record
Temperature  
Mean Temperature 67 °F -  
Max Temperature 79 °F 75 °F 91 °F (1991)
Min Temperature 54 °F 51 °F 37 °F (1950)
Cooling Degree Days 2    
Growing Degree Days 17 (Base 50)    
Moisture  
Dew Point 52 °F    
Average Humidity 67    
Maximum Humidity 96    
Minimum Humidity 25    
Precipitation  
Precipitation 0.00 in - - ()
Sea Level Pressure  
Sea Level Pressure 30.10 in    
Wind  
Wind Speed 2 mph (North)    
Max Wind Speed 9 mph    
Max Gust Speed -    
Visibility 10 miles    
Events      
Averages and records for this station are not official NWS values.
T = Trace of Precipitation, MM = Missing Value Source: NWS Daily Summary

Daily Weather History Graph

Daily Weather History Graph

Search for Another Location

Airport or City:

Astronomy

Sep. 17, 2019 Rise Set
Actual Time 6:41 AM EDT 7:04 PM EDT
Civil Twilight 6:13 AM EDT 7:32 PM EDT
Nautical Twilight 5:41 AM EDT 8:04 PM EDT
Astronomical Twilight 5:08 AM EDT 8:37 PM EDT
Moon 9:05 PM EDT (9/17) 9:43 AM EDT (9/17)
Length of Visible Light 13h 18m
Length of Day
12h 23m
Waning Gibbous, 89% of the Moon is Illuminated
Sep 17
Waning Gibbous
Sep 21
Last Quarter
Sep 28
New
Oct 5
First Quarter
Oct 13
Full

Hourly Weather History & Observations

Time (EDT) Temp. Dew Point Humidity Pressure Visibility Wind Dir Wind Speed Gust Speed Precip Events Conditions
12:53 AM 64.9 °F 63.0 °F 93% 30.05 in 7.0 mi Calm Calm - N/A   Clear
1:36 AM 64.0 °F 63.0 °F 96% 30.06 in 7.0 mi NNW 3.5 mph - N/A   Mostly Cloudy
1:53 AM 66.0 °F 62.1 °F 87% 30.06 in 10.0 mi North 3.5 mph - N/A   Mostly Cloudy
2:32 AM 66.0 °F 60.1 °F 81% 30.06 in 10.0 mi Calm Calm - N/A   Mostly Cloudy
2:53 AM 64.9 °F 60.1 °F 84% 30.06 in 10.0 mi Calm Calm - N/A   Mostly Cloudy
3:04 AM 64.0 °F 60.1 °F 87% 30.06 in 10.0 mi Calm Calm - N/A   Mostly Cloudy
3:17 AM 63.0 °F 60.1 °F 90% 30.06 in 10.0 mi Calm Calm - N/A   Scattered Clouds
3:53 AM 62.1 °F 57.9 °F 86% 30.07 in 10.0 mi Calm Calm - N/A   Mostly Cloudy
4:53 AM 63.0 °F 55.9 °F 78% 30.08 in 10.0 mi North 3.5 mph - N/A   Partly Cloudy
5:53 AM 60.1 °F 55.0 °F 83% 30.10 in 10.0 mi Calm Calm - N/A   Mostly Cloudy
6:53 AM 57.9 °F 55.0 °F 90% 30.12 in 10.0 mi Variable 4.6 mph - N/A   Mostly Cloudy
7:53 AM 60.1 °F 54.0 °F 80% 30.14 in 10.0 mi Calm Calm - N/A   Partly Cloudy
8:53 AM 64.9 °F 53.1 °F 65% 30.14 in 10.0 mi Variable 3.5 mph - N/A   Clear
9:53 AM 69.1 °F 48.0 °F 47% 30.15 in 10.0 mi Variable 4.6 mph - N/A   Clear
10:53 AM 72.0 °F 46.9 °F 41% 30.15 in 10.0 mi NE 6.9 mph - N/A   Clear
11:53 AM 73.9 °F 46.0 °F 37% 30.14 in 10.0 mi North - - N/A   Clear
12:53 PM 75.9 °F 43.0 °F 31% 30.13 in 10.0 mi North - - N/A   Clear
1:53 PM 77.0 °F 43.0 °F 30% 30.11 in 10.0 mi NNE 8.1 mph - N/A   Clear
2:53 PM 79.0 °F 39.9 °F 25% 30.09 in 10.0 mi NE 4.6 mph - N/A   Clear
3:53 PM 79.0 °F 39.9 °F 25% 30.08 in 10.0 mi North 9.2 mph - N/A   Clear
4:53 PM 78.1 °F 39.0 °F 25% 30.07 in 10.0 mi North 8.1 mph - N/A   Clear
5:53 PM 75.9 °F 42.1 °F 30% 30.08 in 10.0 mi Calm Calm - N/A   Clear
6:53 PM 66.0 °F 48.0 °F 52% 30.08 in 10.0 mi Calm Calm - N/A   Clear
7:53 PM 61.0 °F 52.0 °F 72% 30.10 in 10.0 mi Calm Calm - N/A   Clear
8:53 PM 57.9 °F 53.1 °F 84% 30.12 in 10.0 mi Calm Calm - N/A   Clear
9:53 PM 55.9 °F 52.0 °F 87% 30.14 in 10.0 mi NW 3.5 mph - N/A   Partly Cloudy
10:53 PM 55.0 °F 52.0 °F 89% 30.14 in 10.0 mi NNW 3.5 mph - N/A   Clear
11:53 PM 54.0 °F 52.0 °F 93% 30.14 in 10.0 mi NW 3.5 mph - N/A   Clear